[[{"header":{"parameterUnit":"m.s-1","parameterCategory":1,"la1":30.2992,"la2":30.254,"lo1":-89.0895,"lo2":-89.0443,"dy":0.0025,"dx":0.0025,"nx":19,"ny":19,"refTime":"2026-04-19T03:00:00:Z","depth":0,"parameterNumber":2,"parameterNumberName":"U-component_of_WINDS"},"data":[0,0,0,0.9062,0.9062,0.9079,0.9079,0.9093,0.9093,0,0,0,0,0,0,0,0,0,0,0,0.9053,0.9053,0.9062,0.9062,0.9079,0.9079,0.9093,0.9093,0,0,0,0,0,0,0,0,0,0,0,0.9053,0.9053,0.9053,0.9063,0.9079,0.9079,0.9093,0.9083,0,0,0,0,0,0,0,0,0,0,0.9068,0.9056,0.9053,0.9053,0.9063,0.9079,0.9079,0.9083,0.9084,0.9083,0,0.9082,0,0.9088,0.9094,0.9094,0,0,0,0.9065,0.9056,0.9064,0.9053,0.9063,0.9079,0.9072,0.9083,0.9084,0.9084,0.9082,0.9082,0.9088,0.9094,0.9094,0.9081,0.9081,0,0,0.9064,0.9054,0.9063,0.9064,0.9062,0.9072,0.9073,0.9084,0.9081,0.9082,0.9083,0.9088,0.9094,0.9094,0.9081,0.9081,0,0,0,0.906,0.9053,0.9061,0.9063,0.9067,0.9072,0.9074,0.908,0.9084,0.9083,0.9088,0.9094,0.9094,0.9081,0.9081,0.9061,0,0,0,0.9059,0.9051,0.9061,0.9055,0.9067,0.9074,0.9069,0.9083,0.9085,0.9088,0.9094,0.9094,0.9081,0.9081,0.9062,0.9053,0,0,0,0.9054,0.905,0.9052,0.9054,0.9061,0.9074,0.9078,0.9084,0.9088,0.9094,0.9094,0.9082,0.9081,0.9063,0.9055,0.9046,0,0,0,0.9044,0.9034,0.9051,0.9042,0.9061,0.9063,0.9078,0.908,0.9083,0.9094,0.9081,0.9081,0.9064,0.9056,0.9047,0.9035,0.903,0,0,0.9026,0.9032,0.9027,0.9043,0.9039,0.9061,0.9054,0.9066,0.9076,0.9078,0.9078,0.9062,0.9055,0.9046,0.9007,0.9003,0,0,0,0.9018,0.9014,0.9016,0.9018,0.9028,0.9035,0.9049,0.9054,0.9057,0.9075,0.9058,0.9054,0.9049,0.9043,0.904,0.9035,0.9079,0.9079,0.9079,0.8977,0.899,0.8983,0.8998,0.9,0.9015,0.9018,0.9026,0.9039,0.9035,0.9035,0.901,0.9003,0.9001,0.8996,0.9031,0.9031,0.9031,0.9031,0.895,0.8946,0.8963,0.8962,0.8975,0.8974,0.8988,0.8997,0.8997,0.9011,0.9007,0.9019,0.8996,0.8992,0.903,0.903,0.903,0.903,0.9031,0.8922,0.8922,0.8929,0.8934,0.8936,0.8952,0.8951,0.8964,0.8976,0.8973,0.8973,0.8974,0.8974,0.8973,0.8973,0.8972,0.8972,0.8972,0.8972,0.889,0.8898,0.8896,0.8906,0.8909,0.8915,0.893,0.8933,0.894,0.8949,0.8949,0.896,0.8992,0.8998,0.8971,0.8971,0.8971,0.8971,0.8972,0.8854,0.8865,0.8861,0.8865,0.8876,0.8877,0.8894,0.8899,0.8904,0.8903,0.8916,0.8938,0.8944,0.8947,0.8952,0.8914,0.8914,0.8914,0.8914,0.8829,0.8835,0.8834,0.8838,0.8843,0.8859,0.8853,0.8865,0.8878,0.8881,0.8889,0.8898,0.8901,0.8905,0.8909,0.8914,0.8867,0.8867,0.8867,0.8807,0.8813,0.8806,0.882,0.883,0.8838,0.8833,0.8836,0.8853,0.8866,0.8884,0.8886,0.89,0.8905,0.8915,0.892,0.893,0,0]},{"header":{"parameterUnit":"m.s-1","parameterCategory":1,"la1":30.2992,"la2":30.254,"lo1":-89.0895,"lo2":-89.0443,"dy":0.0025,"dx":0.0025,"nx":19,"ny":19,"refTime":"2026-04-19T03:00:00:Z","depth":0,"parameterNumber":3,"parameterNumberName":"V-component_of_WINDS"},"data":[0,0,0,-10.3799,-10.3802,-10.3959,-10.396,-10.4184,-10.4186,0,0,0,0,0,0,0,0,0,0,0,-10.3771,-10.3773,-10.3798,-10.3803,-10.3959,-10.396,-10.4184,-10.4187,0,0,0,0,0,0,0,0,0,0,0,-10.377,-10.3773,-10.3776,-10.3803,-10.3959,-10.396,-10.4183,-10.4055,0,0,0,0,0,0,0,0,0,0,-10.3899,-10.3893,-10.3772,-10.3776,-10.3804,-10.3959,-10.396,-10.4049,-10.4063,-10.4125,0,-10.4189,0,-10.4192,-10.4204,-10.4204,0,0,0,-10.3787,-10.3881,-10.3907,-10.3776,-10.3806,-10.3959,-10.3884,-10.4057,-10.4073,-10.4145,-10.4192,-10.42,-10.4196,-10.4205,-10.4206,-10.4627,-10.463,0,0,-10.3778,-10.3808,-10.3896,-10.3919,-10.3901,-10.3879,-10.3889,-10.4066,-10.4118,-10.4193,-10.4204,-10.42,-10.4207,-10.4209,-10.4625,-10.4628,0,0,0,-10.3764,-10.3803,-10.3824,-10.391,-10.3937,-10.3884,-10.3896,-10.411,-10.4114,-10.4207,-10.4202,-10.4208,-10.4211,-10.4622,-10.4626,-10.4792,0,0,0,-10.3758,-10.3794,-10.3821,-10.384,-10.3934,-10.4026,-10.3936,-10.4102,-10.4121,-10.4201,-10.4208,-10.4214,-10.4619,-10.4624,-10.4781,-10.4865,0,0,0,-10.3754,-10.3794,-10.3824,-10.3842,-10.3911,-10.4023,-10.4037,-10.4105,-10.412,-10.4205,-10.4215,-10.4617,-10.4623,-10.4771,-10.4849,-10.4987,0,0,0,-10.3757,-10.3965,-10.3827,-10.4056,-10.391,-10.4126,-10.4035,-10.4193,-10.4286,-10.421,-10.4619,-10.4626,-10.4768,-10.4839,-10.4977,-10.511,-10.5168,0,0,-10.4035,-10.3999,-10.4132,-10.4013,-10.4263,-10.4099,-10.437,-10.4424,-10.4401,-10.4552,-10.4562,-10.4785,-10.4848,-10.4985,-10.5481,-10.5528,0,0,0,-10.423,-10.4327,-10.4386,-10.4479,-10.4529,-10.4578,-10.4587,-10.4607,-10.4735,-10.4487,-10.487,-10.4906,-10.4985,-10.5048,-10.5087,-10.5154,-10.4655,-10.4655,-10.4654,-10.4666,-10.4632,-10.485,-10.4835,-10.4926,-10.4936,-10.5005,-10.5033,-10.4967,-10.5059,-10.5104,-10.541,-10.5484,-10.5513,-10.5583,-10.517,-10.517,-10.5171,-10.5171,-10.5072,-10.5204,-10.5116,-10.5297,-10.5258,-10.5407,-10.5425,-10.5374,-10.5505,-10.5372,-10.544,-10.5299,-10.5566,-10.5625,-10.5183,-10.5181,-10.518,-10.5179,-10.5178,-10.5355,-10.5413,-10.5437,-10.557,-10.5675,-10.565,-10.5783,-10.574,-10.57,-10.5768,-10.5812,-10.5809,-10.5802,-10.5792,-10.5793,-10.5794,-10.5795,-10.5795,-10.5796,-10.564,-10.5662,-10.5782,-10.5855,-10.5911,-10.5978,-10.5991,-10.6043,-10.6089,-10.6047,-10.6047,-10.5974,-10.5599,-10.5507,-10.5812,-10.5809,-10.5807,-10.5806,-10.5805,-10.6067,-10.5964,-10.615,-10.6206,-10.6289,-10.6398,-10.6343,-10.6453,-10.6488,-10.6555,-10.6467,-10.6197,-10.6155,-10.6123,-10.6047,-10.6474,-10.6474,-10.6474,-10.6474,-10.6307,-10.6283,-10.6465,-10.6558,-10.6644,-10.6614,-10.6822,-10.6835,-10.683,-10.685,-10.6782,-10.6676,-10.6645,-10.6622,-10.6579,-10.6507,-10.7042,-10.7042,-10.7043,-10.6568,-10.6551,-10.6739,-10.6739,-10.6801,-10.6855,-10.705,-10.7157,-10.713,-10.7065,-10.6865,-10.6841,-10.667,-10.6616,-10.6547,-10.6482,-10.6349,0,0]}]]